IRIDIUM 163 (43575 NORAD) Tracking and Keplerian Element Data

This shows tracking and keplerian element data for the satellite.

Feedback or suggestion? Click here.




ElementValue
Catalog43575
NameIRIDIUM 163
Epoch Orbit34193
Epoch Day34.71650967
Epoch Year2025
RAAN264.9978
Inclination86.3931
Eccentricity0.0001996
Argument of Perigee88.9414
Mean Anonmoly271.2011
Mean Motion14.34218457
Decay Rate4.36E-06
L11 43575U 18061G 25034.71650967 .00000436 00000+0 14866-3 0 9995
L22 43575 86.3931 264.9978 0001996 88.9414 271.2011 14.34218457341933



Live tracking and technical data element details for IRIDIUM 163 (NORAD 43575). IRIDIUM 163 can be tracked NOW for your location showing map with azimuth and elevation plus other details from your city location.







IsCatalogInMostPopularTable: catalog: 43575, numindb: 564
Update: records affected: 1



GetName: 43575 IRIDIUM 163

Hit Count: updated at: Thu, 15 May 2025 20:02:18 GMT